Wind_Speed
3 3 4 3 4 4 3 3 1 1 2 3 4 3 4 5 5 5 5 6 4 4 5 5 6 6 4 3 4 2 1 3 7 9 12 14 15 15 13 12 11 11 12 12 12 11 9 6 5 3 1 1 1 2 2 4 7 9 9 9 8 8 9 9 8 9 10 12 15 18 19 19 19 18 16 15 15 15 16 16 16 18 20 21 21 22 23
4 5 5 3 5 5 3 3 3 1 3 4 4 3 1 2 1 3 5 8 3 3 4 5 7 4 1 6 8 6 4 2 4 7 9 12 14 16 15 14 13 12 12 12 12 11 10 8 8 6 3 1 1 1 1 2 5 6 7 7 7 8 8 9 9 10 11 13 15 16 17 17 17 15 14 15 17 18 19 18 18 19 20 20 20 19 18
4 5 5 4 5 6 4 2 4 1 4 4 4 3 1 1 1 1 4 7 4 3 3 5 6 7 10 12 12 10 8 4 3 6 7 9 11 12 13 14 14 14 14 13 12 12 11 10 10 8 7 4 3 3 3 3 4 5 6 6 7 8 9 9 9 9 11 12 13 15 16 15 13 11 9 10 10 12 14 14 13 14 14 13 11 10 10
1 3 5 4 5 7 4 2 4 4 3 3 2 3 2 0 2 2 4 4 1 3 5 8 12 15 16 15 15 14 11 6 5 6 7 7 8 8 9 12 13 14 15 14 13 12 11 10 9 9 8 6 4 4 5 5 4 5 5 6 7 9 10 10 10 10 11 12 12 12 12 11 9 7 6 5 4 4 5 6 5 6 6 6 7 7 8
3 2 3 3 4 6 2 3 1 2 2 4 4 4 3 2 1 4 4 3 3 3 3 7 10 13 15 16 17 17 14 11 9 9 9 9 8 7 7 8 9 11 12 13 14 13 12 11 11 9 8 7 7 6 6 4 4 4 4 4 5 7 7 7 8 9 9 10 10 9 8 7 6 4 3 3 2 2 2 2 3 4 5 6 7 8 8
3 3 3 4 3 2 4 5 3 3 3 5 6 4 3 3 2 2 3 2 1 2 5 8 9 11 14 18 20 20 19 17 15 14 14 14 12 10 9 9 9 9 9 10 12 13 12 12 12 11 10 9 8 7 6 5 4 4 3 3 3 4 4 4 4 5 6 6 6 5 5 5 4 3 3 2 2 1 2 3 4 6 7 9 9 10 10
3 1 4 4 3 5 4 5 3 2 5 7 9 7 3 4 4 4 5 5 4 7 9 12 15 16 20 25 27 26 24 21 20 19 17 16 14 13 12 11 11 11 11 11 10 11 11 10 12 13 13 12 10 9 7 5 4 4 4 4 4 5 5 5 4 4 5 5 5 6 6 6 5 5 5 5 4 4 5 5 6 8 9 10 10 10 10
3 2 3 4 4 5 4 5 5 2 3 4 7 6 5 5 4 3 4 3 2 5 8 10 13 16 22 27 28 26 25 23 22 21 18 14 12 12 11 11 11 10 10 10 10 11 11 9 9 11 11 10 10 8 7 7 7 6 4 4 5 5 5 6 6 6 7 7 8 8 8 8 7 7 7 7 6 5 5 5 5 6 6 6 7 7 8
3 4 2 1 3 4 3 3 2 1 1 1 3 4 2 3 2 2 4 3 2 3 5 7 8 12 18 21 20 21 23 22 22 21 19 15 12 9 8 8 7 5 5 5 6 7 7 6 6 6 6 6 7 7 7 8 7 6 5 5 6 5 4 5 6 6 7 7 7 7 8 8 7 7 7 6 5 4 3 3 4 4 5 5 6 8 9
3 5 3 1 3 2 4 3 2 2 3 2 4 5 1 4 3 2 4 4 4 3 2 2 3 5 10 8 9 15 18 18 18 19 18 17 15 13 11 9 6 3 2 3 2 2 3 3 3 5 7 7 8 9 9 8 8 7 7 7 7 6 4 3 3 4 5 5 5 6 6 7 7 7 7 6 5 4 4 4 4 5 6 7 8 9 9
2 5 4 2 3 4 4 4 6 9 7 2 5 4 1 3 2 3 5 6 7 7 7 5 2 4 5 2 4 11 14 13 14 14 14 15 15 14 14 13 11 10 7 5 3 2 2 2 5 8 10 9 9 10 10 9 8 9 10 10 8 6 4 3 4 5 5 6 6 6 6 7 7 7 7 7 6 6 6 6 7 7 8 8 9 10 11
2 3 3 2 3 2 2 3 7 11 5 3 6 2 4 3 3 5 7 10 10 10 12 12 8 5 4 3 3 8 10 9 11 10 10 10 10 10 10 10 10 10 9 7 5 3 1 1 4 8 11 11 10 10 10 10 13 14 13 13 13 12 12 11 12 12 13 14 14 13 13 12 11 10 9 9 8 8 8 8 8 8 9 9 11 12 14
2 3 3 0 2 2 2 5 9 10 3 4 3 4 6 0 6 8 11 13 12 11 12 12 9 6 5 5 5 7 7 7 8 9 9 9 10 10 9 8 8 7 6 6 6 4 4 4 5 6 8 9 10 11 13 15 17 16 14 13 14 15 16 16 17 17 17 18 18 17 17 16 14 13 12 11 11 11 10 10 10 10 11 12 14 15 16
2 3 3 1 1 2 5 6 8 8 3 3 2 3 2 5 8 9 11 12 11 11 12 12 10 7 5 4 5 6 7 8 9 9 10 11 11 10 10 11 11 11 11 11 9 7 6 6 7 8 9 9 9 10 11 12 14 14 13 12 13 15 15 15 15 16 16 17 17 17 17 16 15 13 12 12 13 13 12 12 13 14 15 16 16 16 16
2 2 3 2 2 4 9 5 4 6 2 5 4 5 6 7 9 9 8 8 8 9 8 8 6 4 3 4 5 6 7 8 10 10 11 11 11 11 12 12 13 14 15 15 14 11 10 10 10 11 12 13 13 13 13 11 11 12 13 13 14 15 16 16 16 16 17 16 16 16 16 15 15 14 14 13 13 13 14 15 15 16 16 16 16 14 13
1 2 1 1 3 4 8 4 3 4 6 9 8 8 6 6 6 7 6 5 6 6 5 5 5 5 6 7 8 10 10 11 11 12 12 12 12 13 14 14 14 15 16 17 17 16 15 14 14 14 15 15 16 16 16 15 14 14 14 15 15 17 18 18 17 18 17 17 17 17 17 16 16 15 14 13 13 14 15 16 15 15 14 14 14 13 12
2 2 3 4 3 4 11 13 11 11 11 9 6 5 4 2 2 2 3 3 3 3 4 5 6 7 8 9 10 12 13 14 14 14 15 15 15 16 17 17 17 18 18 19 20 20 19 18 18 17 17 18 18 17 16 17 18 18 17 17 18 18 19 20 20 20 20 20 20 19 19 18 18 17 16 16 16 16 16 16 16 16 16 16 15 15 15
3 5 5 7 6 6 10 13 13 12 10 7 5 4 3 2 2 1 1 2 3 4 5 7 8 9 10 11 12 14 15 16 17 17 17 18 18 19 20 20 20 21 21 22 22 22 22 21 20 20 19 20 20 19 17 17 17 18 19 21 21 21 20 20 21 21 22 22 22 21 21 20 19 19 19 19 18 17 17 17 18 18 18 17 17 18 19
3 2 3 5 5 6 9 11 10 9 8 7 6 4 3 3 2 2 2 3 4 6 7 9 10 11 12 13 15 16 17 18 18 19 20 20 20 20 20 21 21 22 22 23 23 23 24 23 22 21 21 21 21 21 20 18 17 17 18 19 21 22 21 20 20 21 23 24 23 23 21 21 20 20 19 19 19 19 19 19 19 19 19 19 20 21 21
1 3 4 4 5 6 6 8 7 6 5 4 3 2 1 1 2 4 5 7 8 9 9 10 12 13 14 15 16 17 17 18 19 20 21 21 21 21 20 21 21 22 22 23 23 24 24 22 21 21 21 20 20 21 21 20 18 18 18 17 17 18 18 18 18 19 21 22 21 21 20 19 19 19 19 19 20 20 20 20 20 20 20 20 20 20 20
2 1 2 4 4 2 3 5 4 2 1 2 2 3 4 5 6 8 10 11 12 13 14 14 15 16 16 16 17 18 18 18 20 21 21 22 22 23 23 24 24 24 25 25 25 26 25 23 22 22 21 20 20 20 20 20 20 21 21 20 19 17 16 15 16 16 17 18 18 18 18 18 18 18 19 19 20 20 20 20 20 20 20 19 18 18 19
0 2 3 6 3 2 4 4 1 1 2 3 4 5 6 7 8 10 12 12 13 13 14 15 15 16 17 17 17 17 18 19 21 22 23 24 25 26 27 28 28 28 28 28 28 28 28 26 25 24 23 21 20 19 19 20 21 22 24 24 24 23 21 19 18 17 17 17 18 19 19 19 20 20 20 21 22 22 21 20 20 20 19 19 18 19 20
3 4 4 6 3 3 3 3 3 3 4 5 6 6 7 8 8 10 11 12 12 12 13 14 15 16 16 16 17 18 18 20 22 23 25 27 29 30 31 32 33 33 33 32 32 32 31 29 28 28 26 24 21 19 18 19 21 22 23 25 26 27 26 25 23 22 21 20 19 20 20 21 21 22 22 22 22 22 22 21 20 20 20 20 20 21 22
1 2 4 5 4 3 3 3 4 5 6 8 8 7 7 9 10 11 11 12 12 12 13 14 14 15 16 16 18 19 21 23 25 27 28 29 31 32 33 33 34 34 35 34 34 34 33 32 32 31 30 27 24 21 19 19 20 21 22 23 25 27 28 28 27 25 24 23 21 20 21 22 22 22 22 22 23 23 22 22 22 22 22 23 23 24 24
1 2 5 6 6 5 5 5 5 6 8 9 9 9 9 10 11 10 10 10 10 11 12 13 14 15 16 17 19 22 25 26 26 27 27 28 28 29 30 30 31 32 32 33 33 33 33 33 32 32 32 31 27 24 21 20 20 21 21 22 24 25 26 25 24 22 22 22 22 21 21 21 21 22 23 23 24 24 24 24 25 25 25 25 26 26 26
2 2 4 6 7 7 7 7 6 7 8 9 10 10 10 10 10 10 10 10 10 11 12 13 14 16 18 20 22 23 23 23 22 22 24 25 26 27 28 29 29 30 31 32 33 33 33 33 33 33 34 32 29 27 24 23 22 22 22 22 24 24 22 21 20 20 20 20 20 20 21 21 22 23 24 25 25 25 26 26 26 26 26 27 26 25 24
4 4 6 6 6 6 6 8 8 8 9 10 10 10 10 9 9 10 10 10 11 12 13 15 17 18 19 19 19 18 18 19 20 21 23 24 25 26 27 28 28 29 30 31 32 32 32 33 33 34 34 33 30 28 27 26 24 23 21 22 23 23 22 21 19 19 20 20 20 21 22 23 24 24 25 25 26 26 26 26 26 27 26 25 23 22 21
6 7 8 7 7 7 8 9 10 10 10 10 10 9 8 8 8 10 11 12 13 14 15 15 16 15 14 14 14 15 17 20 21 23 25 25 24 24 24 25 26 27 28 29 29 29 29 29 29 31 32 31 30 29 28 27 26 24 22 21 22 23 23 22 20 18 18 18 19 20 21 22 23 24 24 25 25 25 25 25 24 23 22 19 16 16 17
8 10 9 9 9 10 10 10 10 10 10 10 9 7 6 7 9 11 12 12 12 11 11 10 9 9 11 13 15 18 21 22 23 25 27 26 23 21 21 21 23 24 25 25 25 25 25 25 25 27 27 27 27 27 26 26 26 26 23 21 22 22 20 18 14 12 12 14 16 17 19 20 21 22 23 23 23 23 22 21 20 18 15 12 11 13 15
9 10 10 10 10 10 10 9 8 9 10 9 6 3 5 8 10 10 9 8 7 7 7 8 9 11 14 17 19 21 23 24 25 27 27 24 20 18 18 19 21 22 23 23 22 22 22 21 22 24 24 22 21 22 22 23 26 26 23 20 20 19 16 12 9 8 9 12 14 15 16 18 19 20 20 20 20 20 18 16 14 13 12 12 13 16 17
8 9 10 10 10 9 8 7 8 9 8 6 3 2 4 8 9 8 6 6 6 7 8 10 12 14 17 20 22 24 24 24 26 27 25 20 17 17 18 19 21 24 26 26 25 24 22 21 21 21 20 18 16 16 17 19 23 25 23 18 16 13 10 7 6 7 9 11 12 12 13 15 16 17 17 18 17 17 15 14 13 12 13 15 17 18 19
8 8 9 9 9 8 7 8 9 8 7 6 4 3 4 7 8 6 4 5 7 8 10 12 14 16 19 22 23 23 22 23 25 24 21 17 16 17 19 21 22 25 26 27 27 24 23 21 18 16 14 14 12 11 12 15 21 24 21 16 13 11 8 6 6 8 9 9 8 8 9 11 11 12 13 14 14 14 14 14 13 13 14 17 19 20 19
7 8 9 9 8 8 8 9 9 9 7 6 4 3 5 7 6 3 3 5 7 9 11 13 15 18 21 22 22 21 21 23 23 20 18 17 18 20 21 21 21 21 23 24 23 22 20 18 14 11 10 11 10 10 11 14 20 24 21 15 12 11 8 7 7 8 7 6 5 5 6 6 6 7 8 10 12 14 15 16 16 16 18 18 19 18 17
8 9 10 9 9 9 9 9 9 9 6 3 3 3 5 5 3 1 3 6 9 11 13 15 17 19 21 22 21 20 21 22 21 19 17 18 19 19 19 17 17 17 17 17 18 18 18 16 10 7 9 10 9 10 11 14 19 22 19 15 11 9 8 8 8 7 6 6 6 6 5 5 6 7 9 11 14 16 18 19 19 20 20 19 17 17 17
8 9 9 9 9 10 10 9 8 6 5 5 5 5 5 4 3 2 4 7 10 13 15 16 17 19 22 22 20 19 20 20 19 18 18 18 18 17 17 17 18 17 14 12 13 15 14 11 7 6 9 9 9 10 11 13 17 18 16 12 10 8 8 8 7 6 5 6 8 9 8 7 9 11 13 14 16 18 19 19 18 18 17 17 16 16 16
9 9 9 10 10 9 8 6 4 5 6 6 5 4 4 4 3 4 6 9 11 13 15 16 17 19 21 21 19 18 19 19 18 17 17 16 16 16 17 18 18 18 16 15 16 17 13 7 2 2 5 7 8 9 10 12 13 12 11 10 9 9 8 8 7 6 5 6 10 11 10 10 12 12 11 11 13 14 14 15 15 14 13 13 13 13 12
9 9 10 9 7 5 2 3 5 7 7 6 4 3 3 4 4 5 7 10 11 13 15 15 16 18 21 19 17 16 16 17 16 16 15 14 14 16 18 18 18 19 20 19 19 20 19 14 11 9 10 10 10 11 12 12 12 11 11 10 9 9 10 10 9 6 5 6 9 12 12 12 13 12 10 10 11 11 11 12 13 12 12 12 11 11 10
8 10 9 6 2 2 3 4 7 7 6 5 4 3 3 3 4 6 8 10 12 14 15 14 14 18 19 17 15 14 14 14 14 15 15 15 15 17 19 20 20 20 20 19 18 17 17 16 16 15 14 13 13 12 12 11 11 12 12 11 11 11 12 11 8 6 5 7 9 11 11 11 11 11 10 10 11 11 11 12 11 11 11 11 10 8 7
7 8 7 3 4 4 4 5 6 6 5 4 3 3 3 3 5 8 10 11 13 14 13 12 13 16 17 14 13 13 13 12 13 14 15 16 16 18 20 21 20 18 16 15 14 14 14 13 13 14 14 13 12 12 12 12 14 14 14 13 13 13 12 9 7 5 6 7 9 11 11 10 9 9 9 10 11 12 12 11 9 8 7 6 5 4 4
5 5 4 4 5 5 4 5 5 5 4 4 4 4 4 4 7 8 10 12 13 13 11 10 12 14 14 13 12 12 11 11 12 13 14 15 16 18 21 23 21 19 16 14 14 13 13 13 14 14 15 14 14 15 15 15 15 14 13 13 13 12 10 7 5 5 6 9 10 11 12 12 11 10 9 9 9 9 8 7 6 5 4 4 4 3 2
4 4 4 4 6 6 6 6 6 5 5 5 4 4 4 5 7 8 10 12 13 11 10 9 10 12 13 12 12 11 10 10 11 12 13 14 16 19 22 23 23 21 18 16 14 13 13 14 15 15 15 15 16 16 16 15 14 12 12 12 11 9 8 7 6 6 8 10 10 9 10 10 10 9 9 9 8 7 6 5 5 5 4 4 3 2 1
6 6 5 5 6 7 7 7 6 5 5 4 4 3 4 6 7 8 9 10 11 10 8 7 9 10 12 13 12 11 10 10 10 12 13 15 17 19 20 20 21 21 20 17 16 15 14 14 13 12 12 13 14 15 14 13 12 11 10 10 9 8 8 6 6 8 8 8 7 7 8 7 7 7 7 6 6 5 5 4 4 3 3 2 1 0 1
8 8 7 7 7 8 8 7 7 6 4 3 3 4 5 5 6 7 7 7 8 8 7 7 8 9 11 13 13 12 12 11 11 11 13 14 15 16 17 17 17 18 18 18 17 17 17 15 13 11 10 10 11 12 11 11 9 9 8 8 8 8 7 6 6 7 7 6 6 6 6 6 6 5 5 4 4 3 3 2 2 2 2 1 2 2 3
9 9 9 8 8 9 9 9 8 6 4 3 4 5 5 4 5 5 4 4 7 9 9 9 9 9 11 12 13 13 12 12 11 11 11 11 11 13 14 15 15 15 15 15 16 17 18 18 16 13 10 9 9 9 9 9 8 7 7 7 7 6 5 4 5 5 5 5 6 6 6 6 6 6 5 4 3 2 2 2 3 2 2 3 4 5 5
9 10 10 10 10 10 11 10 8 6 5 5 5 5 5 3 3 3 2 3 6 8 10 11 11 11 11 12 12 13 13 12 12 11 11 11 12 12 13 14 14 13 13 14 15 16 18 18 17 16 14 11 8 7 7 7 6 4 4 5 4 4 3 4 4 4 4 5 5 6 6 6 6 5 5 4 2 2 2 2 3 4 6 6 6 4 2
9 10 11 12 12 12 11 10 8 7 8 8 7 6 4 4 3 3 2 3 5 7 9 10 11 11 11 11 11 12 12 12 12 13 13 13 13 13 13 13 12 12 12 14 15 16 16 16 16 16 15 14 11 9 8 6 5 4 4 4 4 4 5 5 5 5 5 5 5 5 4 4 3 3 2 1 1 2 3 4 6 6 5 2 1 4 6
11 11 12 14 14 13 11 10 10 11 11 11 9 7 6 5 5 4 4 4 4 5 7 8 9 10 10 10 10 10 11 11 12 12 13 13 13 13 13 13 12 12 11 12 14 15 15 14 14 14 13 13 12 11 11 10 8 7 7 6 6 6 6 5 5 5 4 3 3 2 1 1 0 1 1 2 3 4 4 4 2 1 4 7 8 9 9
14 14 13 14 15 15 13 13 13 14 14 13 11 9 8 7 6 5 6 6 6 5 5 6 7 9 9 9 9 9 9 9 10 10 11 11 11 11 12 12 13 12 12 11 12 13 14 14 13 13 12 11 11 11 11 10 9 8 7 7 6 6 5 5 5 5 4 3 3 2 2 1 1 1 0 1 1 0 1 3 5 8 10 10 10 11 11
17 16 15 14 15 16 17 17 17 17 16 15 12 10 9 9 7 6 6 7 7 7 6 6 6 7 8 9 9 8 8 8 8 8 9 9 10 10 11 11 12 12 12 12 12 13 13 13 12 12 11 10 10 10 9 9 8 8 7 7 7 7 7 7 7 7 7 6 6 6 5 5 5 4 4 4 5 5 6 7 8 10 12 12 12 12 13
18 18 18 17 17 17 18 19 20 19 18 16 14 13 12 12 11 9 7 7 8 8 8 7 7 6 6 7 8 7 7 7 7 7 8 8 8 9 9 9 10 10 10 10 11 12 12 12 12 12 12 11 11 10 9 8 8 7 7 7 7 7 7 7 7 7 7 7 7 7 7 7 7 7 8 9 9 9 9 8 9 11 12 12 12 13 13
21 21 21 20 19 18 18 18 19 18 18 17 16 16 15 15 14 12 11 10 9 9 10 9 8 7 6 6 7 6 5 5 6 6 6 6 6 7 7 7 8 8 8 9 9 10 10 11 11 12 12 12 11 11 10 10 9 8 8 8 7 7 7 6 7 7 7 7 8 8 9 9 9 9 9 9 9 9 8 8 9 11 12 12 12 12 12
22 23 22 21 21 20 18 17 17 17 17 17 17 18 19 19 17 16 15 13 12 11 11 10 9 7 6 7 7 5 4 4 4 4 4 4 4 5 5 6 6 7 6 7 7 8 8 9 9 10 10 11 11 10 10 10 9 9 8 8 8 8 7 7 7 7 7 8 8 9 9 9 9 9 9 9 8 7 7 7 8 9 11 11 11 11 10
Wind_Direction
12 35 33 50 81 85 110 129 122 16 27 71 109 153 192 145 138 231 218 147 159 258 308 322 307 298 302 4 39 50 117 176 182 179 177 179 181 183 182 178 177 169 159 152 143 138 138 144 158 156 126 105 73 76 99 114 118 122 130 146 161 174 186 192 197 204 205 204 209 211 212 214 216 221 230 234 238 244 246 247 248 249 250 253 259 268 273
34 20 12 50 91 86 55 4 325 13 80 88 112 129 162 145 180 221 155 121 111 280 287 307 313 303 84 75 66 65 73 108 182 187 186 187 188 188 186 184 185 180 170 161 153 152 155 163 170 159 139 166 263 269 241 144 127 124 127 138 151 165 177 184 193 205 209 209 210 211 214 220 225 233 245 247 246 248 249 252 255 255 256 259 266 274 276
19 1 19 46 91 112 117 346 331 41 109 90 73 75 59 62 67 78 116 107 72 347 333 354 21 67 85 69 54 50 58 80 152 179 188 191 191 191 188 188 189 187 183 179 172 167 164 169 172 163 156 173 223 234 213 167 139 125 120 127 136 146 157 165 174 187 197 202 206 208 212 219 224 226 234 238 238 240 242 245 249 253 258 266 275 284 287
305 340 39 56 81 88 87 358 354 20 98 115 77 63 64 147 148 118 106 112 105 322 355 32 48 62 68 56 43 45 53 73 124 152 166 175 182 187 189 191 192 190 188 186 183 179 176 175 172 165 160 159 165 180 177 164 152 138 129 132 138 142 145 146 151 156 162 168 174 180 187 192 195 193 194 197 199 208 217 226 241 256 269 280 288 293 295
215 302 35 52 68 64 8 276 302 33 111 129 105 55 25 0 131 147 156 174 219 291 17 56 53 52 56 52 45 47 54 68 96 124 137 141 151 166 177 185 188 189 190 188 188 187 184 178 173 167 164 159 156 162 169 175 172 157 149 151 151 149 145 144 149 153 156 159 160 161 165 168 172 173 176 181 188 201 226 249 265 276 280 280 282 284 286
205 276 15 48 71 127 248 264 248 202 173 135 111 77 7 350 21 129 144 138 111 74 76 85 79 69 64 61 58 59 63 71 85 100 111 114 116 126 140 149 154 158 162 170 181 186 184 181 179 175 173 169 167 166 169 180 188 184 185 188 184 180 171 164 162 162 167 172 170 169 167 167 171 168 165 175 197 226 255 266 269 272 273 274 276 278 279
157 315 45 83 193 227 251 302 318 154 142 122 110 96 53 19 26 69 88 84 97 105 101 98 94 86 75 67 64 63 64 70 80 89 97 101 102 106 114 122 128 129 127 132 148 160 163 168 175 174 169 163 160 156 152 158 173 191 212 219 214 211 205 201 201 195 193 195 194 193 190 188 191 188 187 195 206 219 236 245 252 258 262 267 271 276 280
146 100 88 160 228 264 282 320 342 59 90 77 84 70 25 14 24 76 97 81 92 117 109 99 97 92 79 68 62 61 64 66 71 77 82 88 97 103 103 106 112 116 116 116 123 133 132 134 154 166 165 162 162 161 160 159 152 144 153 178 185 188 191 191 191 190 191 193 194 194 194 194 195 192 190 191 194 205 223 232 239 249 258 266 275 286 297
147 120 136 199 344 328 277 296 345 85 41 6 109 106 354 334 359 105 125 85 51 108 118 110 109 95 79 64 50 51 62 67 68 70 70 72 81 92 95 100 110 118 114 107 118 139 142 141 158 172 183 194 197 199 200 194 178 159 151 149 147 153 170 182 184 182 183 187 191 195 198 198 196 193 190 190 194 208 224 233 245 257 267 277 290 301 309
117 100 102 36 25 278 238 244 280 4 351 254 162 122 356 309 344 84 135 107 64 72 89 143 160 96 72 54 22 38 57 66 68 70 69 66 67 69 70 73 79 87 110 115 119 147 159 178 211 222 229 228 222 221 222 216 207 201 194 178 158 146 139 146 176 189 189 192 196 200 205 205 203 202 202 206 217 230 241 249 259 266 274 284 294 301 306
116 114 133 163 185 224 243 255 296 338 343 220 145 90 312 278 354 65 114 95 73 66 60 63 98 84 79 81 4 34 52 58 59 63 64 62 61 60 60 58 55 55 62 69 72 89 120 169 212 224 229 230 223 222 227 231 229 225 222 224 229 228 222 227 245 247 244 243 241 239 238 235 231 230 230 235 243 251 260 267 274 281 288 295 299 303 306
110 122 140 176 198 231 271 277 313 339 348 144 116 103 253 272 41 73 89 80 68 61 62 66 67 75 115 140 40 38 46 43 39 40 41 41 37 33 36 39 37 39 42 43 39 34 9 255 234 231 234 235 232 232 236 240 242 243 245 249 253 254 251 250 253 257 260 260 261 261 258 256 255 256 258 261 265 269 273 277 283 288 295 298 301 304 307
60 101 116 13 251 254 303 320 337 352 32 126 126 209 234 1 76 85 79 76 71 62 67 76 80 83 93 85 44 28 22 11 9 8 5 4 357 350 346 345 347 348 349 354 355 342 323 307 289 270 262 257 254 252 248 243 243 247 253 254 251 251 252 251 252 256 260 260 260 259 257 256 256 259 265 270 272 274 276 278 283 289 295 298 301 304 307
36 97 107 65 254 316 337 336 355 17 70 169 209 211 162 84 92 87 72 75 79 73 74 84 96 103 87 49 10 356 350 345 344 340 336 335 331 324 321 317 311 303 299 303 307 308 307 301 294 285 278 276 274 267 259 252 248 248 250 251 250 248 247 246 249 254 258 258 259 258 257 257 257 261 269 274 274 273 275 279 286 292 295 297 299 301 303
45 71 65 101 183 322 337 330 350 17 70 166 143 104 92 84 85 77 61 59 63 60 58 63 72 75 36 357 339 336 335 333 332 329 325 323 316 309 310 307 300 293 290 289 289 290 289 288 290 287 282 278 276 273 271 268 263 254 248 246 246 244 242 243 248 252 254 257 259 260 260 260 262 268 274 275 273 273 276 281 288 293 296 297 295 295 295
86 100 60 164 213 324 4 50 100 78 110 133 124 105 94 76 65 59 46 34 32 31 23 14 3 347 339 331 323 320 318 317 319 320 321 319 311 305 305 302 297 294 290 287 285 283 282 282 282 283 283 282 280 278 275 271 266 261 256 250 245 241 241 243 246 249 251 254 255 256 257 260 265 270 272 271 271 274 278 282 284 290 298 299 294 290 290
97 120 146 164 162 62 66 85 99 103 111 121 124 116 108 83 49 36 23 7 359 1 354 343 336 332 329 324 319 316 313 311 311 312 315 315 312 309 307 305 303 299 295 291 288 285 283 282 279 278 279 280 279 280 280 276 270 264 261 257 252 247 246 248 249 249 249 250 251 253 255 258 263 267 268 269 272 275 277 278 281 286 293 294 292 288 286
68 70 114 147 142 107 99 105 111 115 119 127 130 131 143 166 190 232 311 320 313 315 316 315 317 319 315 314 315 313 311 311 311 309 310 310 309 308 307 306 305 302 299 297 294 291 289 286 282 279 277 275 276 276 277 279 276 269 262 258 256 252 250 251 253 253 252 249 248 248 249 252 257 261 264 266 269 271 272 275 278 281 283 284 284 282 279
84 94 159 160 137 123 121 120 123 124 124 129 135 137 152 170 188 240 276 291 293 296 302 304 304 306 306 307 309 309 309 309 308 307 307 307 307 306 306 306 304 303 301 299 297 295 294 292 290 285 279 274 273 272 271 271 271 268 262 256 252 251 251 251 254 255 254 251 247 245 246 248 252 255 257 260 260 261 264 269 272 272 272 273 275 275 275
104 217 212 167 134 132 130 126 131 131 121 121 129 123 101 315 307 303 305 309 307 303 304 305 303 305 308 308 307 307 307 305 305 304 304 304 305 305 304 303 303 302 301 300 298 297 295 294 293 289 284 278 272 268 266 264 261 259 257 253 250 247 246 247 248 248 247 246 245 245 246 248 251 253 255 257 257 259 261 263 265 267 268 269 268 269 270
35 299 202 161 149 171 161 145 142 131 80 27 346 330 320 314 313 311 309 309 309 308 307 306 305 305 306 305 303 301 301 300 299 299 299 300 301 301 301 300 299 299 298 297 297 296 295 293 291 287 285 282 276 270 265 261 257 255 255 255 254 249 244 243 244 244 246 247 248 249 251 253 256 260 262 263 264 264 263 263 263 265 265 264 264 264 266
292 251 180 158 168 252 223 196 210 281 284 296 298 297 299 301 302 303 304 303 303 301 298 297 297 297 296 295 293 292 293 294 294 295 296 297 297 297 297 296 295 294 294 293 292 291 291 290 288 284 282 280 278 276 271 266 261 256 253 253 255 255 254 253 251 250 251 252 254 256 258 259 261 262 263 263 263 263 262 261 262 262 262 261 261 262 263
216 231 182 169 195 242 231 234 260 263 264 275 283 290 299 305 306 306 306 305 301 292 286 285 286 286 287 288 288 289 291 293 294 295 296 295 295 295 294 293 293 292 290 289 288 287 286 285 283 281 279 277 275 275 274 271 266 261 256 253 253 254 255 257 258 258 259 259 260 259 256 255 256 257 258 259 259 259 260 259 259 259 260 260 261 261 261
204 233 197 207 241 262 259 259 260 263 271 276 282 293 300 303 307 308 304 302 297 286 280 282 284 284 285 288 291 295 298 299 299 298 296 294 293 293 292 292 292 291 290 289 288 286 284 282 280 278 275 273 271 270 269 268 266 263 259 254 252 252 253 255 258 261 262 262 261 257 252 250 250 252 254 256 257 258 259 260 260 260 259 259 260 260 261
324 252 217 231 256 262 266 271 269 269 272 272 282 297 303 304 310 311 307 302 294 284 283 286 287 289 291 296 300 303 303 303 302 300 298 296 294 293 292 292 291 290 290 289 288 287 286 283 281 279 275 272 269 265 262 260 260 260 259 255 251 249 249 250 252 257 259 258 256 252 248 248 250 252 255 257 258 259 260 261 261 261 261 260 260 260 261
266 242 237 252 259 258 266 279 280 275 276 282 294 303 306 311 316 315 311 306 296 291 291 291 293 299 304 306 306 305 303 303 304 304 302 300 297 295 292 291 290 289 288 287 286 285 284 283 282 280 278 275 271 264 257 253 254 257 259 256 250 246 244 244 246 249 250 249 248 247 247 248 251 253 254 256 259 260 261 263 264 264 264 264 263 261 258
254 258 261 268 273 275 280 290 296 295 293 297 305 308 309 313 315 314 313 311 305 302 302 301 302 305 307 305 304 305 307 310 311 312 309 305 300 296 293 290 289 288 287 285 284 284 283 283 282 280 278 276 273 267 257 250 248 250 254 255 252 246 239 237 239 243 244 244 243 244 247 248 250 253 256 258 260 262 264 265 266 266 266 265 263 257 249
260 270 276 279 291 301 304 304 303 300 298 303 307 305 305 311 319 320 318 314 309 305 304 306 307 309 310 312 314 318 321 320 319 320 320 314 306 299 294 291 290 289 287 286 286 286 286 285 284 282 278 275 272 268 259 248 242 242 247 252 251 245 239 238 238 239 241 243 244 246 249 252 254 257 259 261 262 264 265 264 262 261 261 261 253 240 229
269 276 282 287 296 304 306 303 296 292 299 306 303 300 309 319 320 318 316 316 315 313 313 317 321 323 327 329 329 328 326 325 326 329 328 321 312 306 302 299 297 295 292 291 290 289 288 287 286 284 281 274 269 266 260 248 238 236 240 246 249 253 261 266 259 244 240 248 252 254 256 258 258 260 261 262 263 262 259 256 253 249 244 235 222 213 209
277 278 283 291 300 303 300 295 291 297 308 311 299 298 328 327 319 319 326 334 338 339 339 340 339 336 335 333 331 330 328 326 328 330 329 323 317 314 312 310 307 304 302 300 298 295 293 291 289 287 284 277 268 262 257 247 236 231 233 241 248 256 268 276 271 261 261 263 261 258 258 259 259 260 260 259 257 253 247 241 235 225 210 203 204 204 198
284 284 288 294 302 303 296 293 297 304 315 324 324 346 347 331 322 327 342 355 0 357 351 346 342 340 339 335 331 330 329 327 328 330 328 324 320 319 321 320 316 312 310 309 307 305 301 295 289 287 287 284 271 257 250 242 230 223 225 232 240 244 249 262 275 277 273 264 258 257 258 258 257 256 254 250 244 235 223 213 207 202 198 197 194 187 177
293 295 297 301 304 299 293 299 304 305 311 319 321 322 319 312 313 323 346 3 4 357 351 349 347 343 341 338 335 333 331 329 329 330 329 325 325 328 329 325 317 312 309 307 307 306 302 297 289 284 283 278 264 247 239 229 219 215 216 221 226 231 245 271 279 269 260 252 248 251 253 251 246 242 237 230 221 209 197 191 188 186 183 179 172 165 161
299 296 300 307 306 298 297 303 301 293 292 296 296 292 291 292 296 316 355 2 359 354 350 349 346 343 341 339 337 336 333 332 334 335 333 335 338 337 332 325 319 314 310 308 308 306 303 301 295 280 269 262 245 227 218 213 208 207 209 214 223 233 245 258 256 246 236 224 220 228 232 224 213 205 199 194 187 180 173 168 165 161 159 159 157 156 158
305 302 308 313 306 297 299 300 291 281 269 240 224 271 292 287 276 295 347 352 353 352 347 343 342 343 343 339 338 338 338 339 340 341 342 345 345 338 333 332 332 330 323 317 314 312 309 310 304 267 247 243 228 210 202 200 200 203 207 215 228 238 242 239 232 221 204 194 193 194 193 178 152 138 140 146 151 153 151 148 146 147 147 149 151 154 157
312 314 317 316 307 298 295 290 276 252 214 205 232 269 279 266 258 297 341 348 348 346 342 339 340 343 343 339 339 343 344 344 345 346 347 348 344 340 345 351 351 348 347 342 337 333 324 314 296 250 231 222 204 190 187 189 194 200 207 214 222 224 222 217 206 190 189 196 190 183 181 168 142 128 125 130 136 139 140 140 141 144 147 149 153 156 159
321 322 319 313 308 302 294 278 237 195 189 213 245 260 249 247 271 313 334 339 338 337 338 338 337 339 340 339 342 347 349 350 352 353 351 349 348 354 3 4 358 358 5 9 9 12 12 6 353 184 181 175 164 160 160 162 169 178 185 191 196 199 197 187 171 161 174 191 189 188 189 177 157 143 138 141 143 142 143 144 146 148 150 152 156 161 166
321 321 318 312 306 299 276 212 185 180 191 211 228 236 243 260 291 318 328 332 333 334 336 336 336 338 340 340 343 348 350 353 359 2 2 2 5 10 14 13 9 11 16 17 19 26 35 47 64 86 106 114 116 120 128 135 142 151 161 169 174 174 164 153 146 144 145 156 170 180 184 177 166 159 158 161 161 159 158 157 153 152 155 159 164 171 180
320 319 317 306 268 191 174 175 176 180 190 202 216 240 259 278 304 316 321 325 329 332 334 335 336 338 340 341 344 350 353 355 4 13 18 21 24 26 25 21 18 17 17 15 15 22 37 54 69 79 88 94 100 107 117 128 137 144 150 153 151 146 142 135 126 116 111 121 138 153 163 168 167 164 162 165 169 171 172 171 168 168 170 171 171 173 180
319 319 311 265 195 179 178 176 176 182 192 207 234 255 261 282 303 312 318 324 329 332 333 334 336 339 342 345 350 357 1 3 9 19 27 29 34 39 38 33 27 22 19 17 16 20 32 52 71 83 88 93 101 110 118 126 134 137 138 138 136 135 134 127 110 96 103 112 117 122 129 138 149 156 160 165 171 174 178 182 183 181 173 161 152 147 148
310 315 295 223 194 187 190 192 193 202 215 240 267 267 263 284 302 310 319 327 332 335 336 337 339 343 349 356 1 4 9 14 18 25 31 31 35 42 45 42 38 34 30 29 32 36 41 54 70 85 92 96 102 109 116 123 129 129 127 128 129 131 132 122 96 84 108 122 121 116 114 115 119 124 129 137 145 153 159 162 159 150 132 115 110 111 113
277 292 275 226 200 190 195 207 216 224 237 259 271 268 271 292 305 313 321 330 336 340 341 343 343 346 356 7 12 11 14 20 23 28 31 32 35 41 44 43 41 40 39 40 45 50 56 63 73 82 90 98 105 112 117 122 123 119 116 119 125 133 134 119 85 79 107 123 121 108 100 100 102 104 106 108 111 114 117 117 117 113 106 101 95 83 66
259 256 254 239 218 206 206 213 222 231 244 256 262 271 285 295 304 316 326 335 342 347 348 349 349 351 0 12 18 19 20 23 24 26 28 31 35 40 43 44 43 44 45 49 57 63 66 70 76 83 94 106 115 119 121 124 123 117 114 118 124 130 131 113 81 78 98 112 104 88 83 83 82 85 92 96 97 96 96 98 108 116 122 121 106 326 286
264 251 244 240 231 221 215 214 219 226 233 242 260 279 287 290 299 314 330 348 1 5 5 4 0 358 3 13 20 22 22 23 24 25 25 26 31 38 43 46 48 50 51 55 62 68 71 72 76 83 97 116 128 132 133 135 130 121 120 128 131 127 120 101 78 74 82 89 88 85 86 83 81 85 95 100 93 85 93 120 146 167 186 219 256 274 280
272 257 243 235 232 228 222 216 217 223 230 242 262 272 277 285 299 310 330 10 23 22 20 18 14 10 9 13 19 23 23 24 26 26 25 26 33 42 47 49 51 55 61 65 68 70 70 69 70 73 84 104 125 135 140 142 135 119 109 115 123 122 111 93 77 69 70 81 91 95 95 95 96 100 110 119 118 122 156 187 206 227 250 273 286 292 292
272 260 245 232 226 224 222 219 219 230 249 258 260 264 275 291 299 294 310 10 25 27 28 26 22 18 15 16 19 21 23 24 26 27 30 35 42 47 53 55 55 56 62 70 75 77 75 71 68 68 70 78 96 118 133 143 146 130 100 94 103 110 102 90 81 74 74 83 93 97 98 103 110 117 125 135 147 166 195 227 259 279 290 294 298 301 309
269 261 246 232 223 221 224 227 232 244 256 259 252 251 266 286 293 287 298 341 8 18 24 26 25 22 19 19 21 21 22 23 25 26 29 35 41 45 51 57 59 58 60 66 72 77 78 79 78 76 73 73 78 88 100 112 120 118 104 95 92 88 82 78 77 77 77 77 81 86 93 103 114 123 134 155 224 261 269 278 287 293 294 294 112 112 109
271 264 250 236 226 222 226 232 236 243 251 253 247 244 257 275 285 289 295 306 328 350 6 17 23 23 20 19 21 23 24 25 26 25 24 28 35 42 48 54 58 60 61 63 68 72 74 75 79 82 85 87 89 90 91 93 93 92 91 90 85 80 76 73 72 74 75 75 78 87 99 112 203 263 267 271 275 278 282 289 301 91 116 117 116 115 112
268 268 262 250 239 232 229 230 233 238 245 247 244 243 254 266 272 277 282 286 297 317 337 351 4 14 19 21 22 23 25 27 28 27 24 24 29 37 44 50 55 58 59 61 67 71 73 72 74 77 83 91 97 98 98 99 98 96 95 93 90 86 83 82 81 81 78 78 80 83 87 96 114 140 212 246 252 267 82 99 111 119 120 119 118 117 114
267 270 268 262 251 242 236 234 236 239 242 242 240 242 250 257 262 270 279 283 287 296 308 322 336 354 8 15 18 21 25 28 28 27 24 23 25 32 41 47 52 55 57 58 62 67 70 73 74 75 76 78 84 89 93 96 97 97 94 90 86 84 83 82 83 84 85 86 87 86 87 91 96 99 98 99 104 109 111 115 122 126 125 123 122 121 119
268 270 268 263 254 244 238 236 238 241 242 240 239 242 248 252 257 265 276 281 282 284 290 300 310 325 344 358 5 13 22 29 31 28 24 21 22 28 37 44 49 53 56 58 60 64 68 69 71 73 74 74 74 76 79 82 85 88 88 85 83 82 80 76 76 79 84 88 91 94 98 101 103 102 99 100 105 112 117 120 126 130 130 128 126 125 123
267 268 267 263 257 251 246 243 244 247 248 245 243 244 247 250 252 256 263 270 275 276 280 288 296 305 319 334 345 356 15 32 39 36 28 22 22 28 37 45 50 52 55 59 61 65 70 71 72 73 74 74 73 74 75 75 77 80 83 85 86 87 87 86 85 85 86 87 90 95 101 103 104 103 102 103 110 118 123 124 128 132 134 133 131 130 128
266 267 267 265 262 259 256 252 249 249 249 247 243 243 245 247 248 249 252 258 266 270 273 278 285 291 298 308 319 333 358 29 42 43 38 31 27 31 42 52 57 59 61 64 66 68 72 75 77 77 76 76 76 76 76 75 75 75 76 78 80 81 83 85 86 85 86 88 91 96 101 102 100 98 98 99 103 112 122 129 134 138 141 141 141 140 139
Height
1475 1473 1471 1470 1469 1472 1476 1476 1475 1476 1475 1473 1470 1474 1480 1480 1477 1475 1480 1485 1484 1484 1488 1488 1487 1487 1486 1486 1487 1486 1486 1487 1487 1488 1488 1489 1490 1491 1492 1493 1493 1494 1495 1495 1496 1497 1498 1500 1501 1501 1501 1502 1504 1505 1506 1506 1506 1507 1507 1508 1509 1510 1511 1513 1514 1515 1517 1519 1521 1522 1524 1526 1527 1528 1529 1531 1533 1534 1534 1535 1536 1537 1537 1538 1538 1538 1538
1475 1474 1474 1473 1472 1476 1479 1479 1481 1481 1479 1477 1476 1480 1487 1484 1478 1480 1482 1482 1486 1490 1491 1489 1488 1487 1487 1487 1487 1487 1487 1488 1488 1489 1490 1490 1491 1492 1493 1494 1495 1496 1497 1497 1498 1499 1500 1501 1502 1502 1502 1503 1504 1504 1506 1507 1507 1508 1508 1509 1510 1511 1512 1513 1514 1515 1517 1518 1520 1521 1523 1525 1526 1527 1528 1529 1530 1531 1532 1533 1533 1534 1535 1535 1536 1536 1536
1476 1476 1476 1476 1474 1476 1478 1481 1485 1483 1479 1480 1480 1483 1489 1485 1482 1488 1487 1481 1486 1493 1492 1490 1489 1487 1486 1487 1488 1489 1489 1489 1490 1490 1491 1492 1493 1494 1495 1496 1497 1498 1498 1499 1500 1500 1501 1502 1502 1503 1503 1504 1504 1505 1507 1507 1508 1508 1509 1509 1510 1511 1512 1513 1514 1515 1516 1517 1519 1521 1522 1523 1525 1525 1526 1527 1528 1529 1530 1531 1531 1532 1533 1533 1534 1534 1534
1478 1479 1479 1480 1477 1477 1478 1479 1484 1484 1480 1481 1484 1487 1491 1487 1483 1487 1485 1482 1488 1494 1492 1491 1490 1488 1488 1489 1490 1491 1490 1490 1491 1491 1492 1493 1494 1495 1496 1497 1498 1499 1500 1500 1501 1501 1501 1502 1503 1503 1504 1505 1505 1507 1508 1509 1509 1510 1510 1511 1511 1512 1513 1513 1514 1515 1516 1517 1519 1520 1521 1522 1523 1524 1525 1526 1527 1528 1529 1530 1530 1531 1531 1532 1533 1533 1534
1477 1483 1484 1482 1479 1478 1480 1482 1487 1490 1488 1487 1488 1491 1495 1495 1491 1487 1484 1486 1493 1495 1492 1492 1493 1491 1491 1492 1493 1493 1492 1492 1492 1492 1493 1494 1495 1496 1497 1498 1499 1500 1501 1501 1502 1502 1502 1503 1504 1504 1505 1506 1507 1508 1509 1510 1510 1511 1512 1512 1513 1514 1514 1515 1515 1516 1517 1517 1518 1519 1520 1521 1522 1523 1524 1525 1526 1527 1528 1529 1529 1530 1531 1532 1533 1533 1534
1476 1485 1486 1484 1482 1481 1484 1489 1492 1492 1490 1488 1489 1493 1497 1498 1495 1492 1491 1493 1496 1495 1494 1495 1495 1495 1496 1496 1496 1495 1495 1494 1494 1494 1495 1496 1497 1498 1498 1499 1500 1500 1501 1502 1502 1502 1503 1504 1505 1505 1506 1507 1507 1509 1510 1511 1511 1512 1512 1513 1514 1514 1515 1515 1516 1516 1517 1517 1518 1518 1519 1520 1520 1521 1522 1524 1525 1526 1528 1529 1530 1530 1531 1532 1532 1533 1533
1480 1487 1485 1483 1485 1486 1489 1494 1493 1491 1491 1491 1491 1495 1499 1497 1496 1496 1496 1497 1497 1496 1496 1496 1496 1497 1498 1498 1497 1497 1498 1498 1497 1497 1498 1499 1499 1500 1500 1501 1501 1502 1503 1503 1503 1503 1504 1505 1506 1506 1507 1507 1508 1509 1510 1512 1512 1513 1513 1514 1514 1515 1515 1516 1516 1516 1517 1517 1518 1518 1519 1519 1520 1521 1523 1524 1526 1527 1528 1529 1530 1531 1531 1531 1531 1531 1531
1482 1485 1483 1483 1489 1493 1494 1494 1493 1491 1493 1493 1490 1491 1496 1497 1497 1497 1497 1497 1498 1498 1497 1497 1497 1498 1498 1497 1498 1500 1500 1500 1500 1499 1500 1500 1501 1502 1502 1503 1503 1504 1505 1505 1505 1504 1505 1506 1507 1508 1509 1509 1509 1510 1511 1512 1512 1513 1514 1514 1515 1516 1516 1516 1517 1517 1518 1518 1519 1519 1520 1520 1521 1522 1523 1525 1526 1527 1528 1529 1530 1530 1530 1530 1530 1530 1530
1483 1485 1490 1495 1497 1497 1495 1493 1494 1494 1494 1495 1493 1493 1496 1498 1497 1497 1498 1498 1498 1497 1497 1497 1498 1498 1497 1497 1501 1502 1502 1502 1502 1501 1501 1502 1502 1503 1503 1504 1505 1505 1506 1507 1506 1506 1506 1508 1509 1510 1511 1511 1511 1512 1512 1512 1512 1512 1514 1514 1515 1516 1517 1517 1518 1518 1519 1519 1520 1520 1521 1521 1522 1522 1523 1524 1525 1526 1527 1528 1529 1529 1529 1530 1530 1529 1529
1486 1488 1494 1501 1499 1493 1492 1494 1496 1495 1495 1496 1495 1495 1497 1498 1497 1498 1498 1497 1498 1498 1497 1497 1498 1497 1498 1502 1505 1505 1505 1504 1504 1504 1504 1504 1505 1504 1504 1504 1505 1505 1506 1506 1507 1507 1507 1508 1509 1510 1511 1511 1512 1513 1513 1513 1513 1513 1515 1515 1514 1514 1515 1516 1517 1518 1519 1520 1520 1520 1521 1521 1521 1522 1522 1523 1524 1524 1525 1526 1527 1527 1528 1528 1528 1528 1528
1484 1481 1482 1491 1492 1491 1494 1497 1496 1495 1494 1494 1494 1495 1496 1498 1498 1499 1498 1498 1499 1498 1497 1497 1497 1498 1502 1507 1508 1507 1506 1506 1505 1505 1506 1506 1507 1507 1507 1506 1506 1506 1507 1507 1507 1507 1507 1508 1508 1509 1510 1511 1512 1513 1513 1514 1514 1514 1515 1515 1514 1515 1516 1516 1517 1519 1519 1520 1520 1520 1521 1521 1521 1521 1522 1522 1522 1523 1523 1524 1524 1525 1526 1526 1526 1527 1527
1482 1479 1480 1490 1495 1495 1498 1498 1495 1494 1493 1492 1493 1494 1496 1498 1500 1500 1499 1499 1500 1499 1499 1498 1499 1500 1504 1508 1508 1507 1507 1507 1506 1507 1507 1507 1508 1508 1508 1509 1509 1509 1509 1509 1508 1508 1508 1508 1509 1509 1509 1510 1511 1511 1512 1512 1513 1513 1514 1514 1515 1516 1517 1517 1517 1518 1519 1519 1519 1520 1520 1520 1520 1521 1520 1521 1521 1521 1522 1522 1522 1523 1523 1524 1524 1524 1524
1485 1483 1486 1494 1498 1499 1498 1496 1495 1494 1493 1493 1495 1497 1499 1501 1502 1501 1501 1501 1500 1500 1500 1499 1501 1504 1506 1507 1507 1507 1507 1507 1507 1507 1508 1508 1508 1508 1509 1509 1509 1510 1510 1510 1510 1510 1509 1509 1510 1510 1510 1510 1511 1511 1511 1511 1511 1512 1513 1513 1514 1514 1515 1515 1516 1517 1517 1518 1518 1518 1519 1519 1519 1519 1519 1519 1519 1520 1520 1520 1521 1521 1522 1522 1522 1522 1522
1491 1492 1492 1495 1498 1500 1498 1496 1495 1493 1493 1496 1500 1501 1502 1503 1502 1502 1502 1502 1502 1502 1501 1501 1503 1505 1505 1506 1507 1507 1507 1507 1507 1507 1507 1508 1508 1508 1508 1508 1509 1509 1510 1510 1510 1511 1511 1510 1510 1510 1510 1510 1510 1510 1510 1510 1510 1510 1511 1511 1512 1512 1513 1513 1514 1515 1515 1516 1516 1517 1517 1517 1518 1518 1518 1518 1518 1518 1519 1519 1519 1520 1520 1520 1520 1521 1521
1495 1495 1494 1494 1498 1500 1497 1495 1495 1495 1496 1500 1503 1503 1504 1503 1503 1504 1504 1504 1504 1504 1503 1503 1504 1504 1505 1506 1506 1506 1506 1506 1506 1506 1507 1507 1507 1507 1507 1508 1508 1508 1508 1508 1509 1509 1510 1510 1509 1509 1509 1509 1509 1509 1509 1509 1509 1509 1509 1509 1510 1510 1511 1511 1512 1513 1513 1513 1514 1515 1515 1516 1516 1516 1516 1516 1516 1517 1517 1517 1518 1518 1518 1519 1519 1519 1519
1493 1494 1497 1499 1501 1501 1498 1495 1496 1498 1500 1502 1503 1503 1504 1505 1505 1505 1505 1506 1506 1505 1505 1505 1505 1505 1505 1505 1505 1505 1505 1505 1505 1505 1505 1506 1506 1506 1506 1506 1506 1506 1506 1506 1507 1507 1508 1508 1508 1507 1507 1507 1507 1507 1507 1507 1507 1507 1507 1507 1507 1508 1509 1509 1510 1510 1511 1511 1512 1512 1513 1514 1514 1514 1514 1515 1515 1515 1515 1516 1516 1516 1517 1517 1517 1517 1517
1496 1496 1500 1503 1503 1501 1500 1498 1499 1501 1502 1503 1504 1504 1505 1505 1506 1506 1506 1506 1506 1505 1506 1506 1505 1505 1505 1504 1504 1504 1503 1504 1504 1504 1504 1505 1505 1504 1505 1504 1504 1504 1504 1504 1504 1504 1505 1505 1505 1505 1505 1505 1505 1505 1505 1505 1505 1505 1505 1505 1505 1505 1506 1507 1507 1508 1508 1509 1509 1510 1510 1511 1511 1512 1512 1512 1513 1513 1513 1514 1514 1514 1514 1515 1515 1515 1515
1500 1499 1501 1502 1502 1502 1502 1501 1502 1503 1503 1504 1504 1504 1505 1505 1505 1505 1506 1505 1505 1505 1505 1505 1505 1504 1504 1503 1503 1503 1502 1503 1503 1502 1503 1503 1503 1502 1502 1502 1502 1502 1501 1501 1501 1501 1501 1502 1502 1502 1503 1502 1502 1502 1503 1502 1502 1502 1502 1502 1502 1503 1503 1504 1504 1505 1505 1505 1506 1507 1507 1508 1508 1509 1509 1510 1510 1511 1511 1511 1511 1512 1512 1512 1512 1512 1512
1500 1502 1502 1502 1502 1503 1503 1503 1503 1504 1504 1504 1505 1505 1505 1505 1505 1505 1505 1505 1505 1505 1504 1504 1504 1503 1503 1503 1502 1502 1502 1501 1501 1501 1501 1500 1500 1500 1500 1499 1499 1499 1499 1498 1498 1497 1498 1498 1498 1498 1499 1499 1499 1499 1500 1500 1500 1499 1499 1499 1499 1499 1500 1500 1501 1501 1502 1502 1503 1503 1504 1505 1505 1506 1507 1507 1507 1508 1508 1508 1509 1509 1509 1509 1510 1510 1510
1500 1502 1502 1502 1503 1503 1503 1503 1504 1504 1504 1504 1504 1504 1504 1504 1504 1504 1504 1504 1504 1503 1503 1503 1502 1502 1502 1501 1501 1500 1500 1500 1499 1499 1498 1498 1498 1498 1497 1497 1497 1496 1496 1495 1495 1494 1494 1494 1494 1494 1494 1495 1496 1496 1496 1497 1497 1496 1496 1496 1496 1496 1497 1497 1497 1498 1498 1499 1500 1500 1501 1501 1502 1503 1503 1504 1504 1504 1505 1505 1506 1506 1506 1506 1507 1507 1507
1501 1502 1502 1503 1503 1503 1503 1503 1503 1503 1503 1503 1503 1503 1503 1503 1503 1503 1503 1503 1503 1502 1501 1501 1500 1500 1500 1500 1499 1499 1499 1498 1497 1497 1496 1496 1495 1495 1494 1494 1493 1493 1492 1492 1491 1490 1490 1490 1490 1490 1490 1491 1492 1492 1492 1493 1493 1493 1493 1493 1493 1493 1494 1494 1494 1495 1495 1496 1497 1497 1498 1498 1499 1499 1500 1500 1500 1501 1502 1502 1502 1503 1503 1503 1504 1504 1504
1502 1501 1500 1501 1502 1502 1502 1502 1502 1503 1503 1503 1503 1503 1503 1503 1503 1503 1502 1502 1502 1501 1500 1500 1499 1499 1499 1498 1498 1497 1497 1496 1496 1494 1494 1493 1492 1491 1491 1490 1489 1489 1488 1487 1487 1486 1486 1486 1486 1486 1486 1487 1487 1488 1488 1488 1488 1488 1489 1489 1489 1490 1490 1491 1491 1492 1492 1493 1493 1494 1495 1495 1496 1496 1496 1497 1497 1498 1498 1499 1499 1499 1499 1500 1500 1501 1501
1500 1499 1499 1500 1501 1501 1501 1502 1502 1502 1502 1502 1502 1502 1502 1502 1502 1502 1501 1501 1500 1500 1499 1499 1498 1498 1497 1497 1496 1496 1495 1495 1494 1493 1492 1490 1489 1488 1487 1486 1485 1484 1483 1483 1482 1481 1481 1482 1482 1481 1482 1482 1483 1484 1484 1484 1484 1484 1484 1485 1485 1486 1487 1487 1488 1488 1489 1489 1490 1491 1491 1492 1492 1493 1493 1493 1494 1494 1495 1495 1495 1496 1496 1496 1497 1497 1498
1499 1498 1499 1500 1500 1500 1501 1501 1501 1501 1501 1501 1501 1501 1501 1501 1501 1500 1500 1500 1499 1498 1498 1497 1497 1497 1496 1495 1494 1494 1493 1492 1491 1490 1489 1487 1485 1484 1483 1481 1480 1479 1478 1477 1476 1476 1476 1476 1476 1476 1477 1478 1479 1480 1480 1480 1480 1480 1480 1480 1481 1482 1483 1483 1484 1485 1485 1486 1486 1487 1488 1488 1489 1489 1489 1490 1490 1491 1491 1492 1492 1492 1493 1493 1493 1494 1494
1498 1498 1499 1499 1500 1500 1500 1500 1500 1500 1500 1500 1500 1500 1500 1500 1499 1499 1499 1498 1498 1497 1497 1496 1496 1495 1494 1494 1493 1491 1490 1489 1488 1486 1484 1483 1482 1480 1479 1477 1476 1474 1473 1472 1471 1471 1470 1470 1470 1470 1470 1472 1474 1475 1476 1476 1476 1476 1476 1476 1477 1477 1478 1479 1480 1481 1481 1482 1483 1483 1484 1484 1485 1485 1486 1486 1486 1487 1487 1488 1488 1489 1489 1489 1489 1490 1490
1498 1499 1499 1499 1499 1499 1500 1500 1500 1499 1499 1499 1499 1499 1498 1498 1498 1497 1497 1497 1496 1496 1496 1495 1494 1493 1492 1491 1490 1489 1488 1486 1485 1483 1481 1479 1478 1476 1475 1473 1472 1470 1469 1468 1467 1466 1465 1464 1464 1464 1464 1466 1468 1470 1471 1471 1472 1472 1472 1473 1473 1474 1474 1475 1476 1477 1477 1478 1479 1480 1480 1481 1481 1482 1482 1482 1482 1483 1483 1483 1484 1484 1485 1485 1485 1485 1486
1498 1498 1498 1498 1498 1499 1499 1499 1499 1498 1498 1498 1498 1497 1497 1497 1496 1496 1496 1495 1495 1494 1494 1493 1492 1491 1490 1489 1488 1486 1485 1483 1482 1480 1478 1476 1474 1473 1471 1469 1467 1466 1464 1463 1462 1461 1460 1460 1459 1458 1458 1460 1462 1464 1465 1466 1467 1468 1469 1469 1470 1470 1471 1471 1472 1473 1474 1474 1475 1476 1476 1477 1477 1478 1478 1478 1479 1479 1479 1479 1480 1480 1480 1480 1480 1481 1482
1498 1498 1498 1498 1498 1498 1498 1498 1497 1497 1497 1497 1496 1496 1496 1496 1495 1495 1495 1494 1493 1493 1492 1491 1490 1489 1488 1487 1486 1484 1483 1481 1479 1477 1475 1473 1471 1469 1467 1465 1463 1462 1460 1458 1457 1457 1456 1455 1454 1453 1453 1454 1456 1458 1459 1461 1462 1464 1465 1466 1467 1467 1467 1467 1468 1469 1470 1471 1472 1472 1473 1473 1474 1474 1474 1474 1475 1475 1475 1475 1475 1475 1476 1476 1477 1477 1479
1497 1497 1497 1497 1497 1497 1497 1497 1496 1496 1496 1495 1495 1495 1495 1495 1495 1494 1493 1493 1492 1491 1490 1490 1489 1488 1487 1486 1484 1483 1481 1478 1476 1474 1472 1470 1468 1466 1464 1462 1460 1458 1456 1455 1454 1453 1452 1450 1449 1448 1448 1449 1450 1451 1453 1455 1458 1460 1461 1463 1464 1464 1464 1464 1464 1465 1467 1468 1469 1469 1470 1470 1470 1470 1470 1471 1471 1471 1471 1471 1472 1472 1473 1474 1475 1476 1477
1497 1497 1496 1496 1496 1496 1496 1496 1495 1495 1495 1494 1494 1494 1494 1494 1493 1493 1492 1491 1491 1490 1489 1489 1488 1487 1486 1484 1483 1481 1479 1476 1474 1472 1469 1467 1465 1463 1462 1459 1457 1455 1453 1451 1450 1449 1448 1447 1445 1444 1444 1444 1445 1446 1448 1450 1453 1456 1458 1460 1462 1462 1462 1463 1463 1463 1465 1466 1466 1466 1467 1467 1467 1467 1467 1467 1467 1467 1468 1469 1470 1471 1472 1473 1474 1475 1476
1496 1496 1496 1495 1495 1495 1495 1494 1494 1494 1494 1493 1493 1493 1493 1493 1492 1492 1491 1491 1490 1489 1489 1488 1487 1486 1484 1483 1481 1479 1477 1475 1472 1470 1467 1465 1463 1462 1460 1457 1455 1452 1449 1447 1446 1445 1444 1443 1442 1441 1440 1441 1441 1442 1444 1446 1448 1452 1455 1458 1459 1460 1461 1461 1462 1463 1463 1464 1464 1464 1464 1464 1464 1464 1464 1464 1464 1465 1466 1467 1468 1470 1471 1472 1474 1475 1476
1495 1495 1494 1494 1494 1493 1493 1493 1493 1493 1493 1493 1493 1493 1493 1492 1492 1491 1491 1490 1490 1489 1488 1487 1486 1484 1483 1481 1479 1477 1475 1473 1471 1468 1466 1464 1462 1460 1457 1455 1453 1450 1447 1445 1443 1441 1440 1439 1438 1438 1438 1438 1438 1439 1441 1442 1445 1449 1453 1455 1457 1458 1459 1460 1461 1462 1462 1462 1462 1462 1462 1462 1462 1461 1461 1461 1462 1463 1465 1466 1467 1469 1470 1472 1474 1476 1477
1494 1493 1493 1493 1493 1492 1492 1492 1492 1492 1492 1492 1492 1492 1492 1492 1491 1491 1490 1490 1489 1488 1487 1486 1485 1483 1482 1480 1477 1475 1474 1471 1469 1467 1465 1462 1460 1458 1456 1453 1451 1448 1445 1442 1440 1438 1437 1435 1435 1435 1435 1435 1436 1437 1438 1440 1443 1447 1451 1454 1456 1457 1458 1459 1460 1460 1461 1461 1461 1461 1461 1461 1461 1460 1460 1460 1461 1462 1464 1465 1467 1469 1471 1473 1475 1477 1479
1492 1492 1492 1491 1491 1491 1491 1491 1491 1491 1491 1491 1491 1491 1491 1491 1491 1491 1490 1490 1489 1488 1487 1485 1484 1482 1480 1479 1476 1475 1472 1470 1467 1465 1463 1461 1458 1456 1454 1452 1449 1446 1443 1441 1438 1436 1434 1433 1432 1433 1433 1433 1434 1435 1437 1439 1442 1446 1449 1452 1454 1456 1457 1458 1459 1460 1460 1460 1461 1461 1461 1461 1461 1461 1461 1461 1462 1463 1465 1466 1468 1470 1472 1474 1476 1478 1480
1491 1491 1491 1490 1490 1490 1490 1489 1489 1489 1489 1490 1490 1490 1490 1490 1490 1490 1490 1489 1488 1487 1486 1485 1483 1482 1480 1478 1476 1474 1472 1469 1467 1465 1462 1460 1458 1456 1453 1451 1448 1446 1443 1440 1438 1435 1432 1431 1430 1431 1431 1432 1433 1435 1437 1439 1442 1446 1449 1452 1453 1455 1456 1457 1458 1459 1460 1460 1461 1461 1462 1462 1463 1463 1463 1464 1464 1466 1467 1469 1470 1472 1474 1476 1477 1479 1481
1490 1490 1490 1489 1489 1488 1488 1488 1488 1488 1489 1490 1490 1490 1490 1490 1490 1490 1489 1489 1488 1487 1485 1484 1483 1481 1479 1477 1475 1473 1471 1469 1467 1464 1462 1460 1458 1455 1453 1451 1449 1446 1443 1441 1438 1435 1432 1430 1430 1430 1431 1432 1434 1436 1438 1440 1443 1446 1449 1451 1453 1455 1456 1457 1458 1459 1459 1460 1461 1462 1462 1463 1464 1465 1465 1466 1467 1468 1469 1471 1472 1474 1475 1477 1479 1480 1482
1489 1489 1489 1488 1487 1487 1487 1487 1488 1488 1489 1489 1490 1490 1490 1490 1490 1489 1489 1488 1487 1486 1485 1484 1482 1481 1479 1477 1475 1473 1472 1470 1467 1465 1463 1460 1458 1456 1454 1452 1450 1447 1444 1442 1440 1437 1435 1433 1432 1433 1433 1435 1437 1439 1440 1443 1445 1447 1450 1452 1453 1455 1456 1458 1459 1459 1460 1460 1461 1462 1463 1464 1465 1466 1467 1467 1468 1470 1471 1472 1473 1475 1476 1478 1480 1481 1482
1489 1488 1488 1487 1487 1487 1487 1488 1488 1488 1489 1489 1490 1490 1490 1490 1489 1489 1488 1488 1487 1486 1484 1483 1482 1481 1479 1477 1475 1473 1472 1470 1468 1466 1464 1462 1459 1457 1455 1452 1450 1448 1445 1444 1442 1441 1439 1438 1437 1437 1438 1439 1440 1442 1443 1445 1447 1449 1451 1453 1454 1456 1457 1459 1460 1460 1461 1461 1461 1462 1463 1464 1466 1467 1468 1469 1470 1471 1472 1474 1475 1476 1478 1479 1480 1481 1482
1488 1488 1487 1487 1487 1488 1488 1488 1488 1489 1489 1489 1489 1489 1489 1489 1489 1488 1487 1487 1486 1485 1484 1483 1482 1481 1479 1477 1475 1473 1472 1471 1469 1467 1465 1463 1461 1459 1456 1454 1452 1450 1449 1447 1446 1444 1443 1442 1441 1441 1442 1443 1444 1445 1446 1447 1449 1451 1453 1455 1456 1458 1459 1460 1461 1461 1462 1462 1463 1464 1464 1466 1467 1468 1469 1470 1471 1472 1473 1475 1477 1477 1478 1479 1480 1481 1482
1488 1487 1487 1487 1487 1488 1488 1488 1489 1489 1489 1489 1489 1489 1489 1489 1488 1487 1487 1486 1485 1484 1483 1482 1482 1480 1479 1477 1475 1474 1472 1471 1470 1468 1467 1465 1463 1460 1458 1456 1454 1453 1451 1450 1448 1447 1446 1446 1445 1445 1445 1446 1447 1448 1449 1450 1452 1454 1456 1457 1458 1459 1461 1462 1462 1463 1463 1464 1465 1465 1466 1467 1468 1469 1470 1471 1472 1473 1474 1476 1477 1478 1478 1479 1480 1481 1482
1487 1487 1487 1487 1487 1487 1488 1488 1489 1489 1489 1489 1489 1489 1489 1488 1488 1487 1486 1485 1484 1483 1482 1482 1481 1480 1479 1477 1475 1474 1473 1472 1470 1469 1468 1466 1464 1461 1459 1457 1456 1455 1453 1452 1451 1450 1450 1449 1448 1448 1449 1450 1450 1451 1452 1454 1455 1457 1458 1459 1460 1461 1462 1463 1464 1464 1465 1465 1466 1467 1468 1469 1470 1470 1471 1472 1473 1474 1475 1476 1477 1478 1479 1480 1481 1482 1483
1486 1486 1487 1487 1487 1487 1487 1488 1488 1488 1488 1488 1488 1488 1488 1488 1487 1487 1486 1485 1484 1483 1482 1481 1481 1480 1479 1477 1476 1475 1473 1472 1471 1470 1469 1467 1465 1463 1461 1460 1459 1458 1456 1455 1454 1453 1453 1452 1452 1452 1452 1453 1454 1455 1456 1457 1458 1459 1460 1461 1462 1463 1464 1465 1465 1466 1466 1467 1468 1468 1469 1470 1471 1471 1472 1473 1474 1475 1476 1477 1478 1479 1480 1480 1481 1482 1483
1485 1486 1486 1486 1486 1486 1487 1487 1487 1488 1488 1488 1488 1488 1488 1487 1487 1486 1485 1485 1484 1483 1482 1481 1480 1480 1479 1477 1476 1475 1474 1473 1472 1470 1469 1468 1467 1465 1463 1462 1461 1460 1459 1458 1457 1456 1455 1455 1455 1455 1456 1456 1457 1458 1459 1460 1460 1461 1462 1463 1464 1465 1466 1466 1467 1467 1468 1469 1469 1470 1470 1471 1472 1473 1473 1474 1475 1476 1477 1478 1479 1479 1480 1481 1481 1482 1482
1485 1485 1485 1485 1486 1486 1486 1486 1487 1487 1487 1487 1487 1487 1487 1487 1486 1486 1485 1485 1484 1483 1482 1481 1480 1479 1478 1477 1476 1475 1475 1474 1472 1471 1470 1469 1468 1467 1465 1464 1463 1463 1462 1461 1460 1459 1458 1457 1457 1458 1458 1458 1459 1460 1461 1462 1463 1463 1464 1465 1465 1466 1467 1467 1468 1468 1469 1469 1470 1470 1471 1472 1473 1474 1474 1475 1476 1477 1477 1478 1479 1480 1480 1480 1481 1481 1482
1483 1484 1484 1484 1485 1485 1485 1486 1486 1486 1487 1487 1487 1487 1486 1486 1486 1486 1485 1485 1484 1483 1482 1481 1480 1480 1479 1478 1477 1476 1475 1474 1473 1473 1472 1471 1470 1468 1467 1466 1465 1465 1464 1463 1462 1461 1461 1460 1460 1460 1460 1460 1461 1462 1463 1463 1464 1465 1466 1466 1467 1467 1468 1468 1469 1469 1469 1470 1471 1471 1472 1473 1473 1474 1475 1476 1477 1477 1478 1479 1479 1479 1480 1480 1480 1480 1481
1482 1483 1483 1483 1483 1484 1484 1485 1485 1486 1486 1486 1486 1486 1486 1486 1486 1485 1485 1485 1484 1484 1483 1482 1481 1480 1480 1479 1478 1477 1476 1475 1474 1474 1473 1472 1471 1470 1469 1468 1467 1467 1466 1465 1464 1463 1463 1463 1463 1463 1462 1463 1463 1463 1464 1465 1466 1466 1467 1467 1468 1468 1469 1469 1470 1470 1470 1471 1472 1472 1473 1473 1474 1475 1476 1476 1477 1478 1478 1478 1479 1479 1479 1479 1479 1480 1480
1481 1481 1482 1482 1482 1483 1484 1484 1484 1484 1484 1485 1485 1485 1485 1485 1485 1485 1484 1484 1484 1484 1483 1483 1482 1481 1480 1480 1479 1478 1477 1476 1475 1475 1474 1473 1472 1471 1470 1469 1468 1468 1468 1467 1466 1465 1465 1465 1465 1465 1465 1465 1466 1466 1466 1467 1467 1468 1468 1469 1469 1470 1470 1470 1471 1471 1471 1472 1472 1473 1474 1474 1475 1476 1476 1477 1477 1477 1477 1478 1478 1478 1478 1479 1479 1480 1481
1480 1480 1480 1481 1481 1482 1482 1482 1482 1482 1483 1483 1484 1484 1484 1484 1484 1484 1484 1484 1483 1483 1483 1483 1482 1482 1481 1480 1480 1479 1478 1477 1476 1476 1475 1474 1474 1473 1472 1471 1470 1469 1469 1468 1468 1467 1467 1467 1467 1467 1467 1467 1467 1468 1468 1469 1469 1469 1470 1470 1471 1471 1471 1472 1472 1472 1473 1473 1473 1474 1474 1475 1475 1475 1476 1476 1476 1477 1477 1477 1478 1478 1479 1480 1480 1481 1482
1478 1478 1478 1479 1479 1480 1480 1480 1480 1480 1480 1481 1482 1482 1483 1483 1483 1483 1483 1483 1483 1483 1483 1483 1482 1482 1481 1481 1480 1480 1479 1478 1477 1477 1476 1476 1475 1474 1474 1473 1472 1471 1471 1470 1469 1469 1468 1468 1468 1468 1468 1469 1469 1469 1469 1470 1470 1470 1471 1471 1471 1472 1472 1472 1473 1473 1473 1474 1474 1474 1474 1475 1475 1475 1476 1476 1476 1477 1477 1478 1478 1479 1480 1481 1482 1482 1483
1475 1476 1476 1476 1477 1477 1477 1477 1477 1477 1478 1479 1480 1481 1481 1481 1482 1482 1482 1482 1482 1482 1482 1482 1482 1482 1481 1481 1481 1480 1480 1479 1478 1477 1477 1477 1476 1476 1475 1474 1474 1473 1472 1472 1471 1470 1470 1470 1469 1469 1470 1470 1470 1470 1470 1470 1471 1471 1471 1472 1472 1472 1473 1473 1473 1474 1474 1474 1475 1475 1475 1475 1476 1476 1476 1477 1477 1477 1478 1479 1479 1480 1481 1482 1483 1484 1484
1473 1473 1474 1474 1474 1475 1475 1475 1475 1476 1476 1477 1478 1479 1479 1479 1480 1480 1481 1481 1481 1481 1481 1481 1481 1481 1481 1481 1481 1480 1480 1479 1479 1478 1478 1478 1477 1477 1476 1476 1475 1475 1474 1474 1473 1473 1472 1472 1471 1471 1471 1471 1471 1471 1471 1472 1472 1472 1472 1473 1473 1473 1474 1474 1474 1474 1475 1475 1475 1476 1476 1476 1477 1477 1477 1478 1478 1479 1479 1480 1481 1481 1482 1483 1484 1485 1486
1470 1470 1471 1471 1472 1472 1473 1473 1473 1474 1474 1475 1476 1476 1477 1477 1478 1478 1479 1479 1479 1480 1480 1480 1480 1481 1481 1480 1480 1480 1480 1479 1479 1479 1479 1478 1478 1478 1478 1477 1477 1476 1476 1475 1475 1474 1474 1473 1473 1473 1473 1473 1473 1473 1473 1473 1473 1473 1473 1474 1474 1474 1475 1475 1475 1475 1476 1476 1476 1477 1477 1477 1478 1478 1478 1479 1479 1480 1480 1481 1482 1483 1483 1484 1485 1486 1487